STARLINK-34252, 64330

Orbit data source: Space-Track

STARLINK-34252, 64330 is a payload satellite owned by SpaceX/Seattle (US) in LEO that was launched on Tue, 10 Jun 2025 UTC via an FALCON 9 launch vehicle from the Air Force Eastern Test Range (AFETR). Payload-class satellites include a variety of spacecraft equipped with specific instruments for various scientific and technological missions. These include communications satellites like Starlink; space stations such as the ISS; scientific satellites like the Hubble; Earth observation satellites from companies like Planet Labs, Umbra, and HawkEye 360; GPS; miniature CubeSats for education and research; and military/defense satellites.

Loading next visibility...
Identifier
64330, 2025-124P
Orbit
LEO
Country
Flag of USUS
Related business
Manufacturer
SpaceX/Seattle
Mission
Operational Commercial Communications
Bus & Motor
STARLINK V2MO, Unknown motor
Mass
575 kg wet, ~530 kg dry
Launch date (UTC)
2025-06-10 (9 months ago)
Launch vehicle
FALCON 9
Launch site
Air Force Eastern Test Range (AFETR)
Object type
Payload
Rocket body
Debris
Shape & HBR
Box + 2 Pan, 17.7 m
Radar Cross Section
36.964 m², Large (>1 m²)

Expand to show TLE details & history
Last TLE update: 12 hours ago

TLE from 12 hours ago
0 STARLINK-34252
1 64330U 25124P   26074.34719362  .00032355  00000-0  11792-2 0  9994
2 64330  42.9998  89.9372 0000050 109.4417 250.6440 15.27606959 42645
Epoch: 2026-03-15T08:19Z
TLE epoch observation values (Epoch: 2026-03-15T08:19:57.528Z)
Latitude
-0.00003°
Longitude
151.99214°
Altitude
482.755 km
Speed
7.626 km/s
True Right ascension
05h 59m 44s
True Declination
0° 00' 00"
Sunlit
Object was in daylight at epoch
Visualization orbit readout
Latitude
Unknown
Longitude
Unknown
Altitude
Unknown
Speed
Unknown
Apparent Right ascension
Unknown
Apparent Declination
Unknown
Sunlit
N/A
Visualization observer readout
Local Sidereal Time
01:12:18
Azimuth
Unknown
Elevation
Unknown
Doppler factor
Unknown
Orbital elements
Apogee altitude
484.948 km
Perigee altitude
484.879 km
Semi-major axis
6,863.051 km
Eccentricity
0.00001
Inclination
42.9998°
RAAN
89.9372°
Arg. of periapsis
109.4417°
True anomaly
250.64346°
Mean anomaly
250.644°
Eccentric anomaly
250.64373°
Mean motion
3.8174 °/min
Orbital period
94.31 mins
BSTAR
0.0011792
Loading maneuver chart data...
Computing Atmospheric mass density...
Loading historical data...
Loading historical data...
Loading historical data...
Loading historical data...
Loading historical data...
Loading historical data...
Loading historical data...

Documentation

Showing up to 5 results
|